Location: Champignolles
(47.0543°N, 4.5663°E)
Time: 05:11:04
(UTC+00:00)

CZ-2C R/B - Pass Details

Date: 30 November 2020
Orbit: 705 x 907 km, 98.1° (Epoch: 18 January)

Event Time Altitude Azimuth Distance (km) Brightness Sun altitude
Rises 17:39:07 0° 148° (SSE) 3,230 6.1 -17.2°
Reaches altitude 10° 17:41:31 10° 143° (SE) 2,279 5.2 -17.6°
Maximum altitude 17:46:17 48° 70° (ENE) 955 3.0 -18.4°
Drops below altitude 10° 17:50:55 10° 357° (N) 2,209 5.3 -19.1°
Sets 17:53:13 0° 352° (N) 3,121 6.1 -19.5°
